Terminal Aerodrome Forecast
Issued by NWS Knoxville/Tri Cities, TN

Home | Current Version | Previous Version | Text Only | Print | Product List | Glossary On
Versions: 1 2 3 4 5 6 7 8 9 10 11 12 13 14 15 16 17 18 19 20 21 22 23 24 25 26
000
FTUS44 KMRX 251720
TAFTRI
TAF
KTRI 251720Z 2518/2618 21005KT P6SM FEW100 BKN250
     FM260200 VRB02KT P6SM SCT050 OVC200
     FM261200 VRB03KT P6SM VCSH FEW030 OVC070
     FM261500 17006KT 5SM -SHRA BR OVC070=

USA.gov is the U.S. government's official web portal to all federal, state and local government web resources and services.